Voltar ao catálogo

STARLINK-4480

AtivoComunicaçõesVLEO
NORAD 53416·PAYLOAD·🇺🇸 United States

Lançado Aug 10, 2022 de Cape Canaveral Space Force Station

Loading…

Próximas Passagens (próximas 24 horas)

TLE

AtualizadoSource: CelesTrak SupGP

Época: Sep 14, 2026, 22:21 UTC

1 53416C 22097AE  26257.93173611  .00192360  00000+0  87082-2 0  2576
2 53416  53.1609 343.0533 0001126  93.8391  25.3103 15.20273602    12

Acompanhe STARLINK-4480 em tempo real com AllMySat

Download on the App Store